Available Load Listing

Click here to view advanced filters and to manage your preferences
Use the boxes above the column to filter results. Clicking the heading will sort
Load# Call Available Origin City State Destination City State Dlv Dt Equip
LID2530042 847-463-5128 2017-09-11 GRAND SALINE TX SWEETWATER TX 2017-09-11 FD
LID2543837-2 937-827-0198 2017-09-13 LAFAYETTE IN DUNCANVILLE TX 2017-09-15 PWR
LID2543837-4 937-827-0198 2017-09-13 LAFAYETTE IN DUNCANVILLE TX 2017-09-15 PWR
LID2543837-3 937-827-0198 2017-09-13 LAFAYETTE IN DUNCANVILLE TX 2017-09-15 PWR
BN7364029 8558407891 2017-09-14 GRAMBLING LA PORT ARTHUR TX 2017-09-15 V
LID2547282 855-211-4702 2017-09-18 Frisco TX PARIS FR 2017-09-20
LID2543837-1 937-827-0198 2017-09-18 LAFAYETTE IN DUNCANVILLE TX 2017-09-20 PWR
LID2518923 360-682-5640 2017-09-19 MADILL OK SAN ANTONIO TX 2017-09-20 F
LID2553029 504-210-8545 2017-09-19 MONTOURSVILLE PA HOUSTON TX 2017-09-21 V
LID2518499 360-682-5640 2017-09-19 MADILL OK SAN ANTONIO TX 2017-09-20 F
LID2517803 360-682-5640 2017-09-19 MADILL OK LLANO TX 2017-09-20 FD
LID2553015 504-210-8545 2017-09-19 MONTOURSVILLE PA HOUSTON TX 2017-09-21 V
LID2546806 360-682-5640 2017-09-19 MADILL OK CEDAR PARK TX 2017-09-20 F
LID2543837-5 937-827-0198 2017-09-19 LAFAYETTE IN DUNCANVILLE TX 2017-09-20 PWR
LID2553481 360-682-5640 2017-09-19 MADILL OK AUSTIN TX 2017-09-20 FD
LID2553732 937-827-0198 2017-09-19 LA PORTE TX DALLAS TX 2017-09-20 FD
LID2553608 360-682-5640 2017-09-19 MADILL OK PHARR TX 2017-09-21 FD
LID2457417 360-682-5640 2017-09-20 MADILL OK CONROE TX 2017-09-21 FD
LID2554754 360-682-5640 2017-09-20 MADILL OK AUSTIN TX 2017-09-21 FD
LID2554722 360-682-5640 2017-09-20 MADILL OK EDINBURG TX 2017-09-21 F
LID2529827-6 937-827-0200 2017-09-20 HARVEY IL ODESSA TX 2017-09-22 F
LID2553476 360-682-5640 2017-09-20 MADILL OK AUSTIN TX 2017-09-21 V
LID2553669 937-827-0198 2017-09-20 LA PORTE TX DALLAS TX 2017-09-21 FD
LID2555297 866-234-1434 2017-09-20 MULLINVILLE KS MADISONVILLE TX 2017-09-21 FD
LID2554692 360-682-5640 2017-09-20 MADILL OK MONAHANS TX 2017-09-21 FD
LID2554650 360-682-5640 2017-09-20 MADILL OK VICTORIA TX 2017-09-21 FD
LID2555965 360-682-5640 2017-09-20 MADILL OK STEPHENVILLE TX 2017-09-21 FD
LID2529827-5 937-827-0200 2017-09-20 HARVEY IL ODESSA TX 2017-09-22 F
LID2556792 855-494-2049 2017-09-21 LEEDS AL CHANNELVIEW TX 2017-09-22 F
LID2555820 336-308-2028 2017-09-21 GRAND RAPIDS MI DALLAS TX 2017-09-25 VZ
LID2556954 937-827-0198 2017-09-21 Ennis TX THORNTON CO 2017-09-22 SD
LID2518239 360-682-5640 2017-09-21 NORMAN OK HOUSTON TX 2017-09-22 V
LID2556956 937-827-0198 2017-09-21 Ennis TX THORNTON CO 2017-09-22 SD
LID2546315-4 937-827-0200 2017-09-21 ARCHBOLD OH FARMERS BRANCH TX 2017-09-25 F
LID2551350 603-200-0050 2017-09-21 SAN DIEGO CA AUSTIN TX 2017-09-25 PWR
LID2556100 844-619-9572 2017-09-21 Dawson MN LAREDO TX 2017-09-25 V
LID2556756 937-827-0198 2017-09-21 Laredo TX Bakersfield CA 2017-09-25 V
LID2555302 866-234-1434 2017-09-21 MULLINVILLE KS MADISONVILLE TX 2017-09-22 FD
LID2555549 360-682-5640 2017-09-21 MADILL OK HOUSTON TX 2017-09-22 V
LID2557314 937-827-0198 2017-09-21 Laredo TX YOAKUM TX 2017-09-22 V
LID2555039 360-682-5640 2017-09-21 NORMAN OK HOUSTON TX 2017-09-22 V
LID2555693 855-494-2048 2017-09-21 FLOWER MOUND TX LONGWOOD FL 2017-09-25 V
LID2558133 937-827-0198 2017-09-21 SAN ANTONIO TX LAS VEGAS NV 2017-09-26 FD
LID2556781-1 855-494-2049 2017-09-21 LEEDS AL CORRIGAN TX 2017-09-22 F
LID2559704 937-827-0197 2017-09-21 SCHERTZ TX EL PASO TX 2017-09-21 V
LID2557549 937-827-0198 2017-09-21 Ennis TX OKLAHOMA CITY OK 2017-09-22 V
LID2559857 813-440-2250 2017-09-21 SAN ANTONIO TX LAKELAND FL 2017-09-25 SD
LID2529827-7 937-827-0200 2017-09-21 HARVEY IL ODESSA TX 2017-09-25 F
LID2556682 404-602-9292 2017-09-21 LEBANON IN TERRELL TX 2017-09-24 RT
LID2329790 360-682-5640 2017-09-21 MADILL OK CONROE TX 2017-09-22 FD
LID2555705 855-494-2048 2017-09-21 FLOWER MOUND TX PALM BAY FL 2017-09-25 V
LID2557548 937-827-0198 2017-09-21 Ennis TX OKLAHOMA CITY OK 2017-09-22 SD
LID2559890 844-214-4192 2017-09-22 GARLAND TX LINO LAKES MN 2017-09-25 VR
LID2556979 866-637-8600 2017-09-22 HOUSTON TX OKLAHOMA CITY OK 2017-09-23 V
LID2554018 937-827-0198 2017-09-22 SUFFOLK VA SANGER TX 2017-09-25 V
LID2557027 360-682-5640 2017-09-22 MADILL OK CONROE TX 2017-09-25 FD
LID2555599 855-494-2048 2017-09-22 FLOWER MOUND TX Sanford FL 2017-09-25 V
LID2555356 844-619-9572 2017-09-22 Dawson MN Laredo TX 2017-09-25 V
LID2557608 844-619-9572 2017-09-22 DAWSON MN Laredo TX 2017-09-25 V
LID2554784 937-827-0198 2017-09-22 SUFFOLK VA DAYTON TX 2017-09-25 V
LID2536929 479-203-5234 2017-09-22 Boron CA KATY TX 2017-09-25 V
LID2529827-10 937-827-0200 2017-09-22 HARVEY IL ODESSA TX 2017-09-25 F
LID2559718 937-827-0198 2017-09-22 LAKE CHARLES LA CROSS ROADS TX 2017-09-25 PWR
LID2559835 336-822-7860 2017-09-22 LONG BEACH CA MC CAMEY TX 2017-09-25 VR
LID2542700 800-500-4915 2017-09-22 WEST CHESTER OH HUTCHINS TX 2017-09-25 VR
LID2553686 843-410-1279 2017-09-22 Greenville MS MOODY TX 2017-09-25 V
LID2557219 855-494-2048 2017-09-22 CLEBURNE TX CHICAGO HEIGHTS IL 2017-09-25 FH
LID2557068 937-827-0199 2017-09-22 CLEVELAND OH FORT WORTH TX 2017-09-25 FD
LID2559591 314-401-6863 2017-09-22 EVANS GA LA PORTE TX 2017-09-25 V
LID2558128 844-373-5795 2017-09-22 IRVINE CA HOUSTON TX 2017-09-25 V
LID2556673 708-332-0526 2017-09-22 CAMBRIDGE OH DALLAS TX 2017-09-25 V
LID2558851 937-827-0198 2017-09-22 SAN ANTONIO TX AURORA IL 2017-09-26 FD
LID2557461 855-494-2048 2017-09-22 HARLINGEN TX LAS VEGAS NM 2017-09-25 F
LID2559560 479-725-4424 2017-09-22 IRWINDALE CA HOUSTON TX 2017-09-25 FD
LID2540713 844-373-5795 2017-09-22 HANFORD CA PHARR TX 2017-09-26 V
LID2557489 479-203-5234 2017-09-22 La Porte TX HOUSTON TX 2017-09-22 V
LID2555833 937-827-0199 2017-09-22 LAREDO TX HOMEWOOD IL 2017-09-25 F
LID2557193 844-721-4002 2017-09-22 KENT WA HOUSTON TX 2017-09-28 V
LID2559592 314-401-6863 2017-09-22 EVANS GA LA PORTE TX 2017-09-25 V
LID2559659 619-954-0037 2017-09-22 FOLEY AL SAN MARCOS TX 2017-09-22 V
LID2557338 855-494-2048 2017-09-22 Ennis TX TULSA OK 2017-09-25 F
LID2558533 844-373-5795 2017-09-22 IRVINE CA TEMPLE TX 2017-09-25 V
LID2559209 937-827-0198 2017-09-22 SAN ANTONIO TX GARNER NC 2017-09-26 FD
LID2558418 855-494-2049 2017-09-22 GRAND PRAIRIE TX JEFFERSONVILLE GA 2017-09-21 V
LID2557069 937-827-0199 2017-09-22 CLEVELAND OH FORT WORTH TX 2017-09-25 FD
LID2559160 937-827-0198 2017-09-22 SAN ANTONIO TX LAS VEGAS NV 2017-09-25 FD
LID2559595 314-401-6863 2017-09-22 EVANS GA LA PORTE TX 2017-09-25 V
LID2557263 888-285-4514 2017-09-22 GRAND PRAIRIE TX DALLAS TX 2017-09-25 V
LID2555279 937-827-0198 2017-09-22 Effingham SC HUNTSVILLE TX 2017-09-25 VR
LID2559830 336-822-7860 2017-09-22 LONG BEACH CA MC CAMEY TX 2017-09-25 VR
LID2556928 844-619-9572 2017-09-22 Dawson MN Laredo TX 2017-09-25 V
LID2559455 314-401-6863 2017-09-22 EVANS GA LA PORTE TX 2017-09-25 V
LID2548525 855-494-2048 2017-09-22 Ennis TX SPRINGFIELD MO 2017-09-25 F
LID2555276 937-827-0198 2017-09-22 Effingham SC HUNTSVILLE TX 2017-09-25 VR
LID2559816 336-822-7860 2017-09-22 LONG BEACH CA MC CAMEY TX 2017-09-25 VR
LID2558958 855-494-2049 2017-09-22 TYLER TX KATY TX 2017-09-25 V
LID2559186 937-827-0198 2017-09-22 Harrisonville MO BOWIE TX 2017-09-25 V
LID2558098 844-373-5795 2017-09-22 IRVINE CA LUFKIN TX 2017-09-25 V
LID2555009 844-619-9572 2017-09-22 Houston TX Hereford TX 2017-09-22 V
LID2558736 843-410-1279 2017-09-22 KANSAS CITY MO PLAINVIEW TX 2017-09-25 V
LID2559501 937-827-0198 2017-09-22 FT WORTH TX Charlotte NC 2017-09-25 V
LID2558117 844-373-5795 2017-09-22 IRVINE CA HOUSTON TX 2017-09-25 V
LID2481299 844-797-8190 2017-09-22 HOUSTON TX DANVERS MA 2017-09-24 VM
LID2559242 937-827-0198 2017-09-22 SAN ANTONIO TX ARTESIA NM 2017-09-25 FD
LID2558860 404-602-9292 2017-09-22 WEST LIBERTY IA LAREDO TX 2017-09-25 RT
LID2559834 336-822-7860 2017-09-22 LONG BEACH CA MC CAMEY TX 2017-09-25 VR
LID2555658 855-494-2048 2017-09-22 FLOWER MOUND TX BROOKSVILLE FL 2017-09-25 V
LID2557264 888-285-4514 2017-09-22 GRAND PRAIRIE TX DALLAS TX 2017-09-25 V
LID2558419 855-494-2049 2017-09-22 NEW BRAUNFELS TX JEFFERSONVILLE GA 2017-09-25 V
LID2559828 336-822-7860 2017-09-22 LONG BEACH CA MC CAMEY TX 2017-09-25 VR
LID2559166 937-827-0198 2017-09-22 YOAKUM TX BOWIE TX 2017-09-23 V
LID2552868 937-827-0198 2017-09-22 AMARILLO TX SAPULPA OK 2017-09-25 V
LID2556328 937-827-0199 2017-09-22 CORRY PA FORT WORTH TX 2017-09-25 FD
LID2557127 937-827-0198 2017-09-22 SAN ANTONIO TX GILLETTE WY 2017-09-27 FD
LID2555667 855-494-2048 2017-09-22 FLOWER MOUND TX SANFORD FL 2017-09-25 V
LID2559378 937-827-0199 2017-09-22 FAIRVIEW PA FORT WORTH TX 2017-09-25 V
LID2557746 844-619-9572 2017-09-22 SEATTLE WA CONROE TX 2017-09-25 VR
LID2558027 855-494-2049 2017-09-22 GRAND PRAIRIE TX KATY TX 2017-09-25 V
LID2529827-9 937-827-0200 2017-09-22 HARVEY IL ODESSA TX 2017-09-25 F
LID2558547 844-373-5795 2017-09-22 IRVINE CA TEMPLE TX 2017-09-25 V
LID2557071 937-827-0199 2017-09-22 CLEVELAND OH FORT WORTH TX 2017-09-25 FD
LID2558794 855-494-2049 2017-09-22 WALLER TX MENLO PARK CA 2017-09-26 V
LID2558908 937-827-0198 2017-09-22 SAN ANTONIO TX EUREKA SD 2017-09-26 FD
LID2559596 314-401-6863 2017-09-22 EVANS GA LA PORTE TX 2017-09-25 V
LID2550554 844-797-8189 2017-09-23 CLEVELAND OH TEXARKANA TX 2017-09-23 V
LID2559735 844-619-9572 2017-09-23 YUMA AZ El Paso TX 2017-09-24 V
LID2556649 855-494-2048 2017-09-23 FORT WORTH TX CANYON TX 2017-09-25 F
LID2556648 855-494-2048 2017-09-23 FORT WORTH TX MOUNTAIN VIEW CA 2017-09-27 F
LID2556695 855-494-2048 2017-09-23 FORT WORTH TX SAN LUIS OBISPO CA 2017-09-27 F
LID2559737 844-619-9572 2017-09-23 YUMA AZ El Paso TX 2017-09-24 V
LID2556675 855-494-2048 2017-09-23 FORT WORTH TX CANYON TX 2017-09-25 F
LID2558606 888-285-4514 2017-09-23 SANTA ANA CA TEMPLE TX 2017-09-26 V
LID2556672 855-494-2048 2017-09-23 FORT WORTH TX MOUNTAIN VIEW CA 2017-09-27 F
LID2556722 855-494-2048 2017-09-23 FORT WORTH TX GALVESTON TX 2017-09-25 F
LID2557787 937-827-0198 2017-09-23 BEAUMONT TX ARDMORE OK 2017-09-24 V
LID2553795 479-203-5523 2017-09-24 GREENWOOD IN LEWISVILLE TX 2017-09-25 V
LID2559606 847-463-5128 2017-09-24 SPRINGDALE AR HOUSTON TX 2017-09-30 V
LID2558757 937-827-0197 2017-09-25 LIVERPOOL NY EL PASO TX 2017-09-29 V
LID2559103 937-827-0198 2017-09-25 ORANGE TX ANDERSON SC 2017-09-27 V
LID2554386 844-797-8190 2017-09-25 CARSON CA LANCASTER TX 2017-09-28 V
LID2558425 800-766-6870 2017-09-25 CARSON CA SAN ANTONIO TX 2017-09-28 VR
LID2554019 855-494-2048 2017-09-25 DALLAS TX CORPUS CHRISTI TX 2017-09-25 F
LID2559803 847-463-5128 2017-09-25 DEFOREST WI GRAPEVINE TX 2017-09-27 F
LID2557937 855-494-2049 2017-09-25 SOUTH BOSTON VA FORT WORTH TX 2017-09-27 F
LID2557984 855-494-2048 2017-09-25 Ennis TX KATY TX 2017-09-25 F
LID2548519 855-494-2048 2017-09-25 Ennis TX KANSAS CITY KS 2017-09-26 F
LID2556921 855-494-2049 2017-09-25 PITTSBORO IN HOUSTON TX 2017-09-28 F
LID2558762 888-215-6538 2017-09-25 FORT WORTH TX ALBUQUERQUE NM 2017-09-26 V
LID2537608 937-827-0200 2017-09-25 GOSHEN IN HUTCHINS TX 2017-09-27 ARV
LID2558574 843-410-1279 2017-09-25 GOOD HOPE IL WESLACO TX 2017-09-28 V
LID2552380 937-827-0199 2017-09-25 FORT WORTH TX ERIE PA 2017-09-26 SDT
LID2557932 800-500-4915 2017-09-25 WEST CHESTER OH HUTCHINS TX 2017-09-27 RT
LID2557345 855-494-2048 2017-09-25 Ennis TX LA MARQUE TX 2017-09-26 F
LID2553525 855-494-2048 2017-09-25 Ennis TX HOUSTON TX 2017-09-25 F
LID2554862 888-215-6538 2017-09-25 SHERMAN TX NEWTON KS 2017-09-26 F
LID2557708 855-494-2049 2017-09-25 HOUSTON TX SAN ANTONIO TX 2017-09-26 VR
LID2529827-12 937-827-0200 2017-09-25 HARVEY IL ODESSA TX 2017-09-27 F
LID2558854 619-954-0037 2017-09-25 SAN MARCOS TX FOLEY AL 2017-09-26 V
LID2551783 910-859-8114 2017-09-25 SHREVEPORT LA LAMESA TX 2017-09-26 V
LID2554048 855-494-2048 2017-09-25 Dallas TX SPRING TX 2017-09-25 F
LID2559805 844-619-9572 2017-09-25 NAVASOTA TX Schertz TX 2017-09-26 V
LID2559594 847-463-5128 2017-09-25 COVINGTON TN HOUSTON TX 2017-09-27 V
LID2557673 855-494-2049 2017-09-25 HOUSTON TX FORT WORTH TX 2017-09-26 VR
LID2553600 855-494-2048 2017-09-25 Dallas TX WICHITA KS 2017-09-26 F
LID2557408 844-619-9572 2017-09-25 Navasota TX PILOT POINT TX 2017-09-26 V
LID2501089 479-203-5234 2017-09-25 Wilmington CA ELMENDORF TX 2017-09-28 V
LID2553526 855-494-2048 2017-09-25 Ennis TX HOUSTON TX 2017-09-25 F
LID2555296 937-827-0198 2017-09-25 Effingham SC HUNTSVILLE TX 2017-09-28 VR
LID2555444 937-827-0198 2017-09-25 TYLER TX KISSIMMEE FL 2017-09-27 FD
LID2559419 844-619-9572 2017-09-25 GRAND RAPIDS MI LAREDO TX 2017-09-28 CN
LID2557685 479-203-5850 2017-09-26 SUNNYVALE TX TULSA OK 2017-09-27 V
LID2553534 855-494-2048 2017-09-26 Ennis TX HOUSTON TX 2017-09-26 F
LID2553533 855-494-2048 2017-09-26 Ennis TX HOUSTON TX 2017-09-26 F
LID2555372-1 937-827-0200 2017-09-26 GOSHEN IN HUTCHINS TX 2017-09-28 ARV
LID2556923 855-494-2049 2017-09-26 PITTSBORO IN HOUSTON TX 2017-09-29 F
LID2559479 844-619-9572 2017-09-26 GRAND RAPIDS MI LAREDO TX 2017-10-02 CN
LID2529827-14 937-827-0200 2017-09-26 HARVEY IL ODESSA TX 2017-09-28 F
LID2557995 855-494-2048 2017-09-26 Ennis TX HOUSTON TX 2017-09-26 F
LID2556888 888-215-6538 2017-09-26 BELLVILLE TX CHESAPEAKE VA 2017-09-29 F
LID2553524 855-494-2048 2017-09-26 Ennis TX HOUSTON TX 2017-09-26 F
LID2556780 844-797-8188 2017-09-26 MARSHVILLE NC SAN ANTONIO TX 2017-09-28 RT
LID2554403 336-310-0327 2017-09-26 Foley AL LAREDO TX 2017-09-28 V
LID2555417 888-285-4514 2017-09-26 GRAND PRAIRIE TX GRANDVIEW WA 2017-09-30 V
LID2559855-1 937-827-0200 2017-09-26 ARCHBOLD OH FARMERS BRANCH TX 2017-09-28 F
LID2538022 800-347-0405 2017-09-26 SCHULENBURG TX HANFORD CA 2017-09-28 VR
LID2553031 336-308-2028 2017-09-26 CONWAY AR DALLAS TX 2017-09-27 V
LID2557600 844-797-8188 2017-09-26 BALTIMORE MD LAREDO TX 2017-09-29 V
LID2539530 937-827-0199 2017-09-26 FORT WORTH TX ERIE PA 2017-09-28 FD
LID2481302 844-797-8190 2017-09-26 HOUSTON TX DANVERS MA 2017-09-28 VM
LID2551354 479-203-5234 2017-09-26 Houston TX Wilmington CA 2017-10-02 V
LID2552866 847-463-5128 2017-09-26 GRAND SALINE TX ODESSA TX 2017-09-27 FD
LID2557893 800-500-4915 2017-09-26 COLUMBUS OH DALLAS TX 2017-09-28 RT
LID2558141 800-500-4915 2017-09-26 CASA GRANDE AZ HOUSTON TX 2017-09-28 V
LID2557994 855-494-2048 2017-09-26 Ennis TX HOUSTON TX 2017-09-26 F
LID2559507 844-619-9572 2017-09-26 GRAND RAPIDS MI LAREDO TX 2017-10-02 CN
LID2542967 855-494-2048 2017-09-26 ENNIS TX AMARILLO TX 2017-09-27 F
LID2557993 855-494-2048 2017-09-26 Ennis TX HOUSTON TX 2017-09-26 F
LID2559580 844-619-9572 2017-09-26 College Station TX NATCHEZ MS 2017-09-27 V
LID2557352 855-494-2048 2017-09-26 Ennis TX LA MARQUE TX 2017-09-27 F
LID2557353 855-494-2048 2017-09-26 Ennis TX LA MARQUE TX 2017-09-27 F
LID2539535 937-827-0199 2017-09-27 FORT WORTH TX ERIE PA 2017-09-29 CONG
LID2555372-2 937-827-0200 2017-09-27 GOSHEN IN HUTCHINS TX 2017-09-29 ARV
LID2559808 336-474-9240 2017-09-27 EL PASO TX HASLET TX 2017-09-27 ARV
LID2559807 336-474-9240 2017-09-27 EL PASO TX HASLET TX 2017-09-27 ARV
LID2557996 855-494-2048 2017-09-27 Ennis TX HOUSTON TX 2017-09-27 F
LID2529827-16 937-827-0200 2017-09-27 HARVEY IL ODESSA TX 2017-09-29 F
LID2553804 479-203-5523 2017-09-27 GREENWOOD IN PLANO TX 2017-09-29 V
LID2559855-2 937-827-0200 2017-09-27 ARCHBOLD OH FARMERS BRANCH TX 2017-09-29 F
LID2541746 855-235-1419 2017-09-27 Fort Worth TX FLOWOOD MS 2017-09-28 VR
LID2553789 479-203-5523 2017-09-27 GREENWOOD IN GRAND PRAIRIE TX 2017-09-29 V
LID2559798 336-474-9240 2017-09-27 EL PASO TX HASLET TX 2017-09-27 ARV
LID2557355 855-494-2048 2017-09-27 Ennis TX LA MARQUE TX 2017-09-28 F
LID2558428 800-766-6870 2017-09-27 BAYTOWN TX MONROE LA 2017-09-28 VR
LID2559188 855-494-2048 2017-09-27 Ennis TX HOUSTON TX 2017-09-27 F
LID2556937 800-766-6870 2017-09-27 Dallas TX INDIANOLA MS 2017-09-28 V
LID2553792 479-203-5523 2017-09-27 GREENWOOD IN IRVING TX 2017-09-29 V
LID2529827-18 937-827-0200 2017-09-28 HARVEY IL ODESSA TX 2017-10-02 F
LID2556905 937-827-0199 2017-09-28 HANOVER PARK IL LAREDO TX 2017-10-02 V
LID2533012 855-494-2048 2017-09-28 DALLAS TX SAN ANTONIO TX 2017-09-29 F
LID2559190 855-494-2048 2017-09-28 Ennis TX HOUSTON TX 2017-09-28 F
LID2555372-3 937-827-0200 2017-09-28 GOSHEN IN HUTCHINS TX 2017-10-02 ARV
LID2539534 937-827-0199 2017-09-28 FORT WORTH TX ERIE PA 2017-10-02 CONG
LID2529827-17 937-827-0200 2017-09-28 HARVEY IL ODESSA TX 2017-10-02 F
LID2534349 855-494-2048 2017-09-28 ENNIS TX TULSA OK 2017-09-29 F
LID2539533 937-827-0199 2017-09-29 FORT WORTH TX ERIE PA 2017-10-02 FD
LID2559855-3 937-827-0200 2017-09-29 ARCHBOLD OH FARMERS BRANCH TX 2017-10-02 F
LID2536044 336-308-2028 2017-09-29 HOUSTON TX DUBLIN VA 2017-10-02 V
LID2557728 844-797-8190 2017-09-29 SEALY TX SAN ANTONIO TX 2017-09-29 RT
LID2481303 844-797-8190 2017-09-29 HOUSTON TX DANVERS MA 2017-10-01 VM
LID2556919 855-494-2049 2017-09-29 PITTSBORO IN HOUSTON TX 2017-10-02
LID2558782 336-310-0327 2017-10-02 Cantonment FL FORT WORTH TX 2017-10-04 V
LID2557385 855-235-1419 2017-10-02 FORT WORTH TX FLOWOOD MS 2017-10-04 RT
LID2481497 844-797-8190 2017-10-03 HOUSTON TX DANVERS MA 2017-10-05 VM
LID2551745 866-637-8600 2017-10-04 HOUSTON TX MESQUITE TX 2017-10-05 V
LID2481510 844-797-8190 2017-10-06 HOUSTON TX DANVERS MA 2017-10-08 VM
LID2508073 479-203-5234 2017-10-10 Boron CA PLEASANTON TX 2017-10-10 BK
LID2481512 844-797-8190 2017-10-10 HOUSTON TX DANVERS MA 2017-10-12 VM
LID2557478 479-203-5234 2017-10-10 Boron CA PLEASANTON TX 2017-10-10 BK
LID2481515 844-797-8190 2017-10-13 HOUSTON TX DANVERS MA 2017-10-15 VM
LID2481523 844-797-8190 2017-10-17 HOUSTON TX DANVERS MA 2017-10-19 VM
LID2557479 479-203-5234 2017-10-17 Boron CA PLEASANTON TX 2017-10-17 BK
LID2481530 844-797-8190 2017-10-20 HOUSTON TX DANVERS MA 2017-10-22 VM
LID2501088 479-203-5234 2017-10-23 Wilmington CA ELMENDORF TX 2017-10-23 V
LID2481532 844-797-8190 2017-10-24 HOUSTON TX DANVERS MA 2017-10-26 VM
LID2557481 479-203-5234 2017-10-24 Boron CA PLEASANTON TX 2017-10-24 BK
LID2552199 847-463-5128 2017-10-25 FORT WORTH TX COAL CITY IL 2017-10-26 V
LID2481535 844-797-8190 2017-10-27 HOUSTON TX DANVERS MA 2017-10-29 VM
LID2481536 844-797-8190 2017-10-31 HOUSTON TX DANVERS MA 2017-11-02 VM
LID2557477 479-203-5234 2017-10-31 Boron CA PLEASANTON TX 2017-10-31 BK
LID2481494 844-797-8190 2017-10-31 TRANSFER PA Houston TX 2017-11-02 V
LID2557480 479-203-5234 2017-11-07 Boron CA PLEASANTON TX 2017-11-07 BK
LID2501113 479-203-5234 2017-11-17 Wilmington CA ELMENDORF TX 2017-11-17 V
LID2501115 479-203-5234 2017-12-18 Wilmington CA ELMENDORF TX 2017-12-18 V
LID2413913 844-797-8188 2017-12-31 Houston TX Denton TX 2018-01-01 V
LID2335224 844-797-8188 2017-12-31 DALLAS TX Denton TX 2017-12-31 V
LID2309682 844-797-8188 2017-12-31 DALLAS TX Denton TX 2017-12-31 V
LID2309675 844-797-8188 2017-12-31 DALLAS TX Denton TX 2017-12-31 V
LID2406175 844-797-8188 2017-12-31 SEGUIN TX PERRIS CA 2018-01-02 V
LID2413848 844-797-8188 2017-12-31 Missouri City TX Denton TX 2018-01-01 V